Burlington, WA
on Thursday, November 29, 2012

Thursday
Previous Day Next Day
Daily Summary
 ActualAverage (KBLI)Record (KBLI)
Temperature
Mean Temperature °F 40°F  
Max Temperature 55°F 46°F 60°F (2012)
Min Temperature 48°F 34°F 12°F (2006)
Degree Days
Heating Degree Days 14 25  
Month to date heating degree days 628  
Cooling Degree Days 0 0  
Month to date cooling degree days 0  
Year to date cooling degree days 42  
Growing Degree Days2 (Base °F )  
Moisture
Dew Point 47°F   
Average Humidity 83    
Maximum Humidity 100    
Minimum Humidity 67    
Precipitation
Precipitation 0.04 in 0.18 in 0.85 in (2008)
Month to date precipitation 5.61  
Year to date precipitation 31.42  
Wind
Wind Speed 11 mph   
Max Wind Speed 20 mph   
Max Gust Speed 31 mph   
Visibility 10 miles   
Events     

Key: T is trace of precipitation, MM is missing value
Source: NWS Daily Summary
Time(PST)TemperatureDew PointHumidity Pressure Visibility Wind DirectionWind SpeedGust SpeedPrecipitationEvents Conditions
12:15 AM 53.6°F 46.4°F 77% 29.68 in 10.0 miles SSE 8.1 mph 16.1 mph 0.00 in   Scattered Clouds
12:35 AM 55.4°F 44.6°F 67% 29.68 in 10.0 miles SE 12.7 mph 21.9 mph 0.00 in   Partly Cloudy
12:55 AM 55.4°F 46.4°F 72% 29.67 in 10.0 miles SE 9.2 mph 29.9 mph 0.00 in   Scattered Clouds
1:35 AM 55.4°F 46.4°F 72% 29.66 in 10.0 miles SE 13.8 mph 31.1 mph 0.00 in   Clear
1:55 AM 55.4°F 46.4°F 72% 29.65 in 10.0 miles SE 13.8 mph 21.9 mph 0.00 in   Clear
2:15 AM 55.4°F 46.4°F 72% 29.65 in 10.0 miles SE 9.2 mph - 0.00 in   Partly Cloudy
2:35 AM 55.4°F 46.4°F 72% 29.66 in 10.0 miles ESE 10.4 mph - 0.00 in   Mostly Cloudy
2:55 AM 55.4°F 46.4°F 72% 29.65 in 10.0 miles ESE 11.5 mph 17.3 mph 0.00 in   Mostly Cloudy
3:15 AM 55.4°F 46.4°F 72% 29.65 in 10.0 miles ESE 13.8 mph 19.6 mph 0.00 in   Mostly Cloudy
3:35 AM 53.6°F 46.4°F 77% 29.64 in 10.0 miles ENE 10.4 mph - 0.00 in   Mostly Cloudy
4:15 AM 51.8°F 46.4°F 82% 29.61 in 10.0 miles ESE 4.6 mph - 0.00 in   Mostly Cloudy
4:35 AM 51.8°F 46.4°F 82% 29.61 in 10.0 miles East 10.4 mph 16.1 mph 0.00 in   Mostly Cloudy
4:55 AM 51.8°F 46.4°F 82% 29.59 in 10.0 miles East 11.5 mph - 0.00 in   Overcast
5:15 AM 51.8°F 46.4°F 82% 29.58 in 10.0 miles East 12.7 mph - 0.00 in   Mostly Cloudy
5:35 AM 51.8°F 46.4°F 82% 29.57 in 10.0 miles East 11.5 mph 16.1 mph 0.00 in   Mostly Cloudy
5:55 AM 51.8°F 46.4°F 82% 29.55 in 10.0 miles East 13.8 mph 17.3 mph 0.00 in   Mostly Cloudy
6:15 AM 53.6°F 46.4°F 77% 29.54 in 10.0 miles East 17.3 mph - 0.00 in   Overcast
6:35 AM 51.8°F 46.4°F 82% 29.54 in 10.0 miles East 15.0 mph - 0.00 in   Overcast
6:55 AM 51.8°F 46.4°F 82% 29.52 in 10.0 miles ENE 16.1 mph 21.9 mph 0.00 in   Mostly Cloudy
7:15 AM 51.8°F 46.4°F 82% 29.50 in 10.0 miles East 13.8 mph - 0.00 in   Mostly Cloudy
7:35 AM 51.8°F 46.4°F 82% 29.50 in 10.0 miles ENE 16.1 mph 19.6 mph 0.00 in   Mostly Cloudy
7:55 AM 53.6°F 46.4°F 77% 29.51 in 10.0 miles East 9.2 mph - 0.00 in   Mostly Cloudy
8:15 AM 51.8°F 46.4°F 82% 29.51 in 10.0 miles East 12.7 mph - 0.00 in   Overcast
8:35 AM 51.8°F 46.4°F 82% 29.53 in 9.0 miles East 6.9 mph - 0.00 in   Overcast
8:55 AM 53.6°F 46.4°F 77% 29.54 in 7.0 miles SE 4.6 mph - 0.00 in   Overcast
9:15 AM 51.8°F 48.2°F 88% 29.55 in 5.0 miles SSW 3.5 mph - 0.00 in   Overcast
9:55 AM 48.2°F 48.2°F 100% 29.57 in 7.0 miles SE 6.9 mph - 0.01 in   Overcast
10:15 AM 50.0°F 50.0°F 100% 29.58 in 8.0 miles SE 6.9 mph - 0.00 in   Overcast
10:35 AM 51.8°F 50.0°F 94% 29.59 in 6.0 miles SE 10.4 mph - 0.01 in   Mostly Cloudy
10:55 AM 51.8°F 50.0°F 94% 29.59 in 5.0 miles SSE 11.5 mph 20.7 mph 0.02 in   Overcast
11:15 AM 51.8°F 50.0°F 94% 29.58 in 9.0 miles SE 15.0 mph 20.7 mph 0.00 in   Overcast
11:35 AM 51.8°F 50.0°F 94% 29.57 in 9.0 miles SE 18.4 mph 28.8 mph 0.01 in   Overcast
11:55 AM 51.8°F 50.0°F 94% 29.57 in 10.0 miles SE 12.7 mph 25.3 mph 0.01 in   Overcast
12:15 PM 53.6°F 48.2°F 82% 29.58 in 10.0 miles SSE 17.3 mph 23.0 mph 0.00 in   Mostly Cloudy
12:35 PM 53.6°F 48.2°F 82% 29.57 in 10.0 miles SSE 19.6 mph 26.5 mph 0.00 in   Mostly Cloudy
12:55 PM 53.6°F 48.2°F 82% 29.57 in 9.0 miles SE 17.3 mph 25.3 mph 0.00 in   Mostly Cloudy
1:15 PM 53.6°F 48.2°F 82% 29.58 in 10.0 miles SE 17.3 mph 28.8 mph 0.00 in   Mostly Cloudy
1:35 PM 53.6°F 48.2°F 82% 29.58 in 9.0 miles SE 16.1 mph 27.6 mph 0.00 in   Mostly Cloudy
1:55 PM 53.6°F 48.2°F 82% 29.58 in 9.0 miles SE 13.8 mph 19.6 mph 0.00 in   Overcast
2:15 PM 53.6°F 48.2°F 82% 29.57 in 10.0 miles SE 9.2 mph - 0.00 in   Overcast
2:35 PM 53.6°F 48.2°F 82% 29.57 in 5.0 miles SE 16.1 mph 20.7 mph 0.00 in   Overcast
2:55 PM 53.6°F 48.2°F 82% 29.57 in 9.0 miles SE 10.4 mph 16.1 mph 0.00 in   Mostly Cloudy
3:15 PM 53.6°F 48.2°F 82% 29.57 in 10.0 miles SE 10.4 mph 17.3 mph 0.00 in   Overcast
3:35 PM 53.6°F 46.4°F 77% 29.56 in 10.0 miles SE 11.5 mph - 0.00 in   Overcast
3:55 PM 53.6°F 46.4°F 77% 29.56 in 10.0 miles SE 9.2 mph 17.3 mph 0.00 in   Overcast
4:15 PM 53.6°F 48.2°F 82% 29.56 in 10.0 miles ESE 11.5 mph - 0.00 in   Overcast
4:35 PM 53.6°F 48.2°F 82% 29.55 in 10.0 miles ESE 12.7 mph 18.4 mph 0.00 in   Overcast
4:55 PM 53.6°F 46.4°F 77% 29.55 in 10.0 miles SE 11.5 mph 18.4 mph 0.00 in   Overcast
5:15 PM 51.8°F 48.2°F 88% 29.54 in 10.0 miles East 11.5 mph - 0.00 in   Overcast
5:35 PM 51.8°F 48.2°F 88% 29.54 in 10.0 miles East 15.0 mph - 0.00 in   Mostly Cloudy
5:55 PM 51.8°F 48.2°F 88% 29.53 in 10.0 miles East 10.4 mph - 0.00 in   Overcast
6:15 PM 51.8°F 48.2°F 88% 29.53 in 10.0 miles East 11.5 mph - 0.00 in   Overcast
6:35 PM 51.8°F 48.2°F 88% 29.52 in 10.0 miles East 13.8 mph - 0.00 in   Overcast
6:55 PM 51.8°F 46.4°F 82% 29.52 in 10.0 miles East 13.8 mph - 0.00 in   Scattered Clouds
7:15 PM 51.8°F 46.4°F 82% 29.52 in 10.0 miles ESE 13.8 mph - 0.00 in   Mostly Cloudy
7:35 PM 53.6°F 46.4°F 77% 29.51 in 10.0 miles ESE 15.0 mph 18.4 mph 0.00 in   Overcast
7:55 PM 51.8°F 46.4°F 82% 29.51 in 10.0 miles ESE 9.2 mph - 0.00 in   Mostly Cloudy
8:15 PM 51.8°F 48.2°F 88% 29.50 in 10.0 miles ENE 12.7 mph - 0.00 in   Overcast
8:35 PM 50.0°F 46.4°F 87% 29.49 in 10.0 miles East 9.2 mph - 0.00 in   Overcast
8:55 PM 50.0°F 46.4°F 87% 29.49 in 10.0 miles ENE 8.1 mph - 0.00 in   Overcast
9:15 PM 50.0°F 46.4°F 87% 29.49 in 10.0 miles ESE 4.6 mph - 0.00 in   Overcast
9:35 PM 51.8°F 46.4°F 82% 29.50 in 10.0 miles SE 6.9 mph - 0.00 in   Mostly Cloudy
9:55 PM 51.8°F 46.4°F 82% 29.50 in 10.0 miles SSE 3.5 mph - 0.00 in   Scattered Clouds
10:15 PM 50.0°F 46.4°F 87% 29.49 in 10.0 miles SE 5.8 mph - 0.00 in   Scattered Clouds
10:35 PM 48.2°F 46.4°F 93% 29.48 in 10.0 miles ENE 6.9 mph - 0.00 in   Scattered Clouds
10:55 PM 48.2°F 46.4°F 93% 29.47 in 10.0 miles ENE 9.2 mph - 0.00 in   Mostly Cloudy
11:15 PM 50.0°F 46.4°F 87% 29.45 in 10.0 miles East 12.7 mph - 0.00 in   Overcast
11:35 PM 50.0°F 46.4°F 87% 29.45 in 10.0 miles East 6.9 mph - 0.00 in   Overcast
11:55 PM 50.0°F 46.4°F 87% 29.44 in 10.0 miles ENE 9.2 mph - 0.00 in   Overcast
Moon Phase
Nov. 29 Dec. 06 Dec. 13 Dec. 20 Dec. 28
Sunrise:07:38 AM (PST) Moon Rise:05:24 PM (PST)11/29
Sunset:04:17 PM (PST) Moon Set:08:30 AM (PST)11/29

Copyright © 2014 The Weather Underground, Inc.